Wetbulb
58.24 57.83 60.45 60.78 60.81 61.33 60.40 61.60 61.02 60.65 60.74 61.29 61.55 61.58 61.58 61.70 61.29 61.36 62.59 61.21 60.03 59.53 59.59 59.08 59.33 59.22 58.42 59.26 60.12 60.40 59.46 60.19 58.01 59.10 61.05 61.97 62.44 62.19 63.89 63.56 62.80 59.71 58.70
58.42 58.03 59.54 60.38 61.00 60.63 60.80 60.91 60.93 61.21 61.02 61.35 61.85 61.94 62.12 61.59 60.98 61.65 62.13 61.34 59.96 59.21 58.16 58.00 58.81 59.21 57.99 58.75 59.32 58.67 58.65 59.59 59.44 57.59 59.48 60.93 61.02 62.22 62.65 61.64 61.62 61.27 57.68
58.57 56.93 58.56 59.83 60.12 60.55 60.86 62.17 61.16 61.08 61.50 61.68 61.16 61.60 62.12 62.25 61.66 61.12 61.58 61.26 60.65 59.31 58.88 58.92 59.40 59.73 58.65 58.95 58.63 58.17 58.03 60.41 59.54 58.65 57.75 57.62 59.00 59.51 59.35 57.68 54.57 53.27 55.56
57.99 56.65 56.80 59.10 59.71 59.87 60.53 61.94 62.04 61.35 61.58 61.98 61.95 62.23 62.90 62.83 62.35 62.76 61.60 60.55 60.90 60.53 60.22 59.98 60.14 59.96 59.42 59.44 59.84 58.75 58.69 58.40 58.45 57.24 55.52 54.11 55.14 55.19 56.16 53.76 55.25 56.92 56.88
57.78 56.70 56.40 59.42 59.60 60.36 59.73 61.50 61.88 60.99 60.10 60.44 61.77 63.16 63.29 63.26 63.30 62.18 62.15 61.02 60.66 60.12 60.06 60.82 61.02 60.65 59.55 59.51 60.16 58.91 58.34 57.91 56.70 54.80 53.13 53.76 53.64 53.28 51.91 53.88 54.46 55.14 55.73
56.70 56.93 57.83 58.66 59.36 60.18 60.82 59.28 62.27 61.31 58.54 58.60 58.07 58.18 58.93 62.45 52.28 55.40 60.04 61.61 61.20 60.38 60.16 60.78 60.20 59.17 58.48 56.57 54.28 54.60 57.34 55.81 53.66 52.96 52.71 52.74 53.20 54.94 54.95 54.88 54.44 53.15 52.49
56.57 58.25 58.12 57.64 58.19 59.94 60.49 59.65 58.81 58.11 57.18 57.08 57.05 56.17 53.57 53.34 51.73 52.68 55.58 62.25 61.45 60.68 59.96 60.23 60.84 61.70 58.61 58.28 51.40 51.31 51.63 53.43 54.81 54.84 53.74 53.60 53.20 55.51 55.30 53.64 53.36 53.89 53.21
55.28 56.95 57.97 57.58 57.89 59.02 59.19 58.98 58.66 59.10 57.70 56.25 55.67 54.76 52.71 50.10 47.66 50.59 53.77 61.04 60.50 59.77 59.69 59.81 60.17 59.08 57.34 56.77 55.48 56.15 56.31 55.48 56.17 59.93 57.52 54.51 54.94 55.79 56.74 56.95 55.33 54.78 55.30
55.07 55.39 57.23 56.77 56.74 57.25 57.92 58.55 58.31 58.38 58.09 56.62 55.85 53.63 52.34 49.63 46.27 50.53 57.68 59.02 58.68 58.58 59.76 58.06 57.83 56.63 50.32 49.90 56.21 54.85 53.77 51.75 46.38 46.03 46.26 43.88 43.24 45.86 51.29 54.75 53.23 50.82 48.89
55.06 55.94 56.63 56.14 56.86 56.10 57.82 58.62 58.56 58.91 57.83 58.44 56.95 53.97 51.44 50.73 44.35 44.74 54.66 58.77 56.92 53.74 52.00 52.28 51.96 51.89 44.58 49.34 55.13 54.59 52.67 51.20 47.84 47.29 47.28 44.81 44.81 45.91 46.89 48.85 50.14 46.69 45.40
56.39 56.60 55.43 55.23 56.71 56.42 58.84 59.17 58.88 59.15 58.43 57.75 57.89 55.42 53.81 50.61 46.78 42.32 45.12 55.75 56.18 54.31 52.57 49.86 51.14 43.27 43.69 46.31 50.11 53.45 51.35 50.12 49.54 51.13 50.72 52.12 52.49 52.47 49.21 50.79 49.49 47.53 45.72
56.57 56.74 55.59 54.82 58.21 59.10 58.72 58.86 59.03 58.48 57.40 56.87 56.40 55.67 55.85 51.79 46.57 41.57 42.14 45.64 46.07 52.85 51.84 50.34 45.74 40.52 40.51 41.59 42.43 40.96 44.05 46.81 48.85 48.86 49.50 50.43 49.53 49.69 49.81 47.55 47.34 47.36 49.28
55.94 55.02 56.05 55.92 55.93 59.11 59.09 58.53 57.87 57.49 57.60 55.65 55.94 54.49 55.01 53.33 48.03 41.77 40.65 43.93 45.47 53.40 50.46 48.40 40.50 39.61 40.33 40.26 40.35 43.04 44.53 46.91 47.56 49.53 47.39 45.09 44.64 45.09 45.47 45.72 46.06 48.29 48.56
55.67 55.72 56.42 54.62 55.72 58.44 59.91 59.50 58.27 56.54 55.87 54.53 54.65 53.58 54.07 52.96 47.46 41.75 42.10 44.72 45.01 44.57 44.17 42.29 40.58 40.40 41.11 41.29 39.42 39.89 44.04 47.00 49.38 48.07 45.19 45.39 44.96 44.09 44.00 45.53 46.19 46.30 45.84
56.25 57.29 55.94 55.62 56.48 56.66 58.22 58.68 57.73 56.88 55.85 54.87 53.46 53.69 52.91 53.92 51.86 44.85 44.42 46.41 48.87 47.75 46.17 44.00 43.22 42.03 44.15 45.90 47.36 45.14 47.57 50.06 48.34 45.35 44.63 43.93 44.20 44.91 45.90 46.32 45.33 43.54 41.01
56.97 57.53 56.50 55.59 56.42 57.06 56.59 55.02 42.56 46.00 47.14 47.67 47.79 51.74 54.21 51.55 45.21 42.34 42.62 43.80 44.95 45.01 50.54 49.56 48.70 48.44 48.36 48.93 50.18 49.75 49.40 47.19 45.81 44.80 43.97 44.32 43.59 42.80 42.25 42.62 43.00 40.60 38.80
57.47 57.89 57.36 55.53 56.94 56.52 56.66 56.06 52.79 46.60 42.74 42.10 44.12 45.73 48.11 48.13 43.85 41.74 42.14 41.77 42.43 43.05 49.28 51.17 51.31 52.11 51.80 52.94 49.28 47.55 44.88 44.38 44.97 46.38 44.61 44.27 42.83 43.05 43.06 40.96 40.71 40.29 39.47
57.34 50.51 58.21 57.56 56.44 56.74 56.55 56.25 55.75 51.70 48.90 48.42 44.02 43.87 42.66 42.53 42.26 41.38 40.39 42.02 44.44 45.32 48.77 49.91 51.35 54.25 54.34 49.65 47.00 45.52 44.67 44.78 44.03 43.57 42.76 43.85 43.93 42.72 40.60 40.22 40.00 38.48 37.25
59.63 57.74 58.32 58.18 57.70 55.79 56.61 56.35 55.19 54.58 52.26 52.27 47.69 43.38 38.10 38.38 38.64 39.04 40.91 50.99 49.97 49.39 49.46 50.80 53.55 52.20 49.89 47.87 46.26 44.78 44.82 46.08 44.04 43.64 44.04 43.41 42.60 41.82 40.43 39.32 37.48 35.23 36.07
60.19 53.03 54.91 57.62 56.68 57.16 56.40 56.02 55.57 53.68 53.60 53.33 50.74 49.07 42.58 43.42 44.24 44.61 47.19 50.36 49.94 50.39 49.75 51.59 48.72 48.37 47.15 46.18 45.71 45.51 43.65 43.53 44.46 43.77 42.02 41.78 42.09 41.01 39.49 38.84 38.38 37.63 36.20
60.76 57.65 50.95 57.84 57.20 57.33 57.35 56.29 55.71 55.12 53.82 53.99 53.24 49.57 40.76 49.22 48.31 48.88 49.79 50.88 51.55 53.31 53.72 50.91 48.63 46.99 46.24 46.55 45.46 44.12 45.09 45.72 44.73 43.12 42.75 43.19 42.34 40.83 39.69 39.92 38.81 38.62 37.72
61.46 60.10 57.30 58.27 57.97 57.46 56.65 57.06 55.87 55.31 54.57 53.95 54.16 50.22 38.88 52.10 51.65 51.49 51.52 52.46 52.34 54.25 53.02 49.50 48.26 48.07 47.87 46.35 45.35 45.76 43.92 43.86 43.76 43.85 43.38 41.95 41.01 40.77 40.78 40.00 39.37 38.24 37.67
61.46 60.67 58.78 58.47 58.33 51.48 52.04 56.49 56.24 56.17 55.56 54.62 54.77 50.97 47.69 52.25 52.30 52.47 52.62 52.71 55.32 52.82 50.80 49.22 48.78 47.80 47.06 46.30 46.08 45.52 44.15 43.85 44.60 44.64 42.93 42.57 41.29 40.46 40.89 37.86 38.68 37.12 35.87
59.09 59.09 59.45 58.84 58.18 56.89 57.21 56.24 54.39 48.64 55.62 55.30 54.11 51.41 50.70 51.56 52.74 52.74 53.61 55.08 53.31 51.58 50.97 49.80 48.22 44.90 42.95 44.42 44.65 44.86 45.24 44.73 44.72 44.00 43.11 42.61 40.66 39.18 40.27 38.13 36.54 37.31 33.88
57.41 58.47 58.45 59.06 58.61 57.78 57.39 55.40 57.15 55.04 55.22 53.33 51.64 50.93 51.46 51.98 52.71 53.75 52.55 51.17 50.51 48.70 45.74 44.92 44.51 43.50 43.54 42.49 40.76 39.44 34.99 35.32 40.48 38.17 43.01 42.50 41.24 39.61 36.93 34.75 35.58 32.91 30.93
57.34 58.15 58.24 58.45 58.23 57.53 56.23 55.57 55.75 56.21 54.86 54.38 52.38 51.50 53.24 51.37 51.08 51.11 50.42 47.69 45.32 44.04 44.00 43.90 43.83 42.47 41.37 40.23 38.38 34.31 33.65 33.67 34.89 34.56 41.20 40.43 37.40 35.14 34.37 34.16 34.44 30.64 29.86
MSLP
1008.70 1008.85 1009.24 1009.26 1009.27 1009.31 1009.58 1009.83 1009.94 1009.84 1009.77 1009.69 1009.68 1009.82 1009.92 1010.12 1010.45 1010.91 1011.48 1012.07 1012.51 1013.03 1013.63 1013.85 1014.36 1014.75 1015.43 1015.91 1016.33 1016.57 1016.99 1017.25 1017.79 1018.58 1018.98 1019.78 1020.34 1020.60 1020.82 1021.07 1021.33 1021.75 1021.94
1008.55 1008.82 1009.15 1009.23 1009.38 1009.55 1009.78 1010.05 1010.23 1010.04 1010.11 1010.05 1010.07 1010.10 1010.38 1010.44 1010.74 1011.16 1011.69 1012.42 1012.82 1013.38 1013.99 1014.35 1014.70 1015.15 1015.61 1016.13 1016.41 1016.92 1017.24 1017.40 1017.96 1018.76 1019.31 1019.61 1019.92 1020.27 1020.45 1020.88 1021.16 1021.46 1021.90
1008.46 1008.80 1009.14 1009.44 1009.69 1009.76 1009.88 1010.22 1010.25 1010.32 1010.28 1010.35 1010.49 1010.57 1010.78 1011.03 1011.30 1011.52 1012.03 1012.68 1013.20 1013.79 1014.18 1014.40 1014.92 1015.39 1016.01 1016.40 1016.82 1017.45 1017.73 1017.96 1018.43 1018.81 1019.18 1019.24 1019.67 1020.21 1020.77 1021.13 1021.59 1021.73 1021.84
1008.35 1008.76 1009.15 1009.49 1009.70 1009.74 1009.94 1010.08 1010.22 1010.50 1010.56 1010.54 1010.69 1010.84 1011.15 1011.48 1011.68 1012.03 1012.46 1013.12 1013.67 1014.22 1014.54 1014.81 1015.14 1015.52 1016.10 1016.82 1017.44 1017.83 1018.19 1018.52 1018.83 1019.22 1019.58 1019.99 1020.47 1020.95 1021.20 1021.68 1021.79 1021.76 1021.51
1008.24 1008.69 1009.16 1009.49 1009.53 1009.66 1009.87 1010.06 1010.23 1010.42 1010.51 1010.65 1011.18 1011.23 1011.48 1011.81 1012.00 1012.26 1012.81 1013.51 1013.96 1014.58 1015.06 1015.35 1015.57 1016.09 1016.69 1017.16 1017.52 1017.92 1018.04 1018.28 1018.75 1019.36 1020.27 1020.70 1021.13 1021.06 1021.13 1021.07 1021.19 1021.36 1021.28
1008.08 1008.57 1008.99 1009.41 1009.56 1009.79 1009.88 1010.13 1010.27 1010.49 1010.81 1011.08 1011.64 1011.83 1012.13 1012.35 1012.58 1012.68 1013.22 1013.47 1014.11 1014.66 1015.09 1015.52 1015.74 1016.42 1016.90 1017.05 1017.60 1017.55 1017.51 1017.90 1018.85 1019.67 1019.92 1020.21 1020.38 1020.32 1020.47 1020.75 1021.02 1021.42 1021.58
1007.87 1008.41 1008.82 1009.29 1009.58 1009.80 1009.86 1010.19 1010.66 1011.05 1011.20 1011.68 1012.01 1012.28 1012.76 1012.94 1013.04 1013.42 1013.50 1013.81 1014.10 1014.53 1015.14 1015.64 1016.26 1016.69 1017.00 1017.15 1017.45 1017.40 1017.53 1018.10 1017.89 1018.17 1018.78 1019.26 1019.47 1019.46 1019.81 1020.43 1020.71 1021.06 1021.06
1007.60 1008.20 1008.61 1009.14 1009.48 1009.82 1010.15 1010.51 1010.91 1011.37 1011.73 1012.04 1012.48 1012.72 1012.98 1013.51 1013.49 1013.86 1014.05 1014.17 1014.52 1014.90 1015.30 1015.70 1016.10 1016.65 1016.98 1017.20 1017.50 1017.47 1017.65 1018.05 1018.23 1017.99 1018.44 1019.13 1019.17 1019.30 1019.54 1019.83 1019.78 1020.51 1021.00
1007.11 1007.77 1008.26 1008.80 1009.41 1009.77 1010.25 1010.68 1011.02 1011.52 1012.07 1012.34 1012.55 1013.03 1013.30 1013.55 1013.54 1013.80 1014.05 1014.41 1014.79 1015.21 1015.61 1015.99 1016.21 1016.69 1017.05 1017.31 1017.24 1017.77 1018.22 1018.49 1018.77 1018.68 1018.86 1018.99 1018.94 1019.04 1019.13 1019.63 1020.38 1020.75 1021.15
1006.43 1007.22 1007.83 1008.34 1009.08 1009.68 1010.22 1010.60 1010.91 1011.30 1011.88 1012.22 1012.84 1013.05 1013.46 1013.83 1013.94 1014.01 1014.16 1014.62 1015.25 1015.58 1015.81 1016.20 1016.43 1016.91 1017.31 1017.29 1017.55 1018.06 1018.32 1018.51 1018.61 1018.82 1019.12 1019.35 1019.24 1019.14 1019.35 1019.46 1020.00 1020.86 1021.53
1005.64 1006.48 1007.27 1007.85 1008.60 1009.31 1010.07 1010.45 1010.93 1011.42 1011.71 1012.33 1012.74 1013.20 1013.46 1013.73 1014.32 1014.43 1014.49 1014.73 1015.20 1015.73 1016.06 1016.51 1016.65 1016.88 1017.26 1017.32 1017.45 1018.03 1018.52 1018.54 1018.86 1018.86 1018.92 1019.01 1019.23 1019.73 1020.23 1019.99 1020.67 1021.07 1021.72
1005.01 1005.76 1006.66 1007.39 1008.02 1008.88 1009.66 1010.37 1010.88 1011.46 1011.90 1012.33 1012.73 1013.19 1013.46 1013.82 1014.12 1014.56 1014.69 1014.90 1015.22 1015.63 1016.13 1016.35 1016.76 1017.22 1017.39 1017.69 1018.02 1018.25 1018.36 1018.43 1018.69 1018.95 1020.00 1020.54 1020.70 1020.80 1020.59 1020.85 1021.19 1021.60 1021.82
1004.55 1005.24 1006.09 1006.96 1007.60 1008.54 1009.35 1010.05 1010.69 1011.22 1011.78 1012.26 1012.69 1013.16 1013.58 1013.78 1014.26 1014.58 1014.81 1015.02 1015.11 1015.45 1015.70 1016.06 1016.72 1017.03 1017.47 1017.79 1018.02 1018.17 1018.50 1018.88 1019.36 1019.93 1020.82 1021.14 1021.05 1021.38 1021.57 1021.77 1021.90 1021.72 1021.68
1004.15 1005.00 1005.71 1006.60 1007.44 1008.18 1008.85 1009.60 1010.31 1010.87 1011.45 1011.84 1012.32 1012.81 1013.28 1013.79 1014.21 1014.60 1014.94 1015.10 1015.05 1015.16 1015.45 1016.17 1016.47 1016.96 1017.41 1018.02 1018.10 1018.63 1018.95 1019.14 1019.63 1020.46 1021.22 1021.59 1021.74 1021.71 1021.71 1021.69 1021.84 1021.86 1022.11
1003.56 1004.54 1005.33 1006.11 1006.88 1007.75 1008.31 1008.96 1009.74 1010.25 1010.63 1011.20 1011.53 1012.00 1012.68 1013.31 1013.66 1013.97 1014.45 1014.98 1015.09 1015.24 1015.73 1016.52 1017.18 1017.60 1018.09 1018.51 1018.74 1019.07 1019.47 1019.77 1020.47 1020.85 1021.10 1021.62 1021.77 1021.78 1021.95 1021.98 1022.29 1022.75 1023.25
1003.12 1003.98 1004.71 1005.59 1006.46 1007.15 1008.00 1008.99 1009.53 1009.66 1010.08 1010.56 1010.84 1011.15 1011.59 1011.87 1012.46 1013.15 1013.88 1014.47 1014.92 1015.41 1016.14 1016.92 1017.45 1017.68 1018.17 1018.46 1018.87 1019.23 1019.60 1019.82 1020.28 1020.59 1021.02 1021.31 1021.87 1022.30 1022.71 1022.87 1023.03 1023.46 1023.67
1002.40 1003.17 1004.06 1004.84 1005.81 1006.59 1007.39 1008.27 1009.39 1010.07 1010.09 1010.27 1010.38 1010.56 1010.86 1011.26 1011.68 1012.37 1013.00 1013.71 1014.30 1014.89 1015.47 1016.11 1016.50 1016.66 1017.12 1017.77 1018.34 1018.84 1019.53 1019.86 1020.10 1020.47 1020.78 1021.22 1021.49 1022.34 1022.39 1022.90 1023.44 1023.79 1024.24
1001.70 1002.46 1003.20 1003.99 1004.85 1005.76 1006.42 1007.15 1007.97 1009.03 1009.74 1010.22 1010.37 1010.36 1010.30 1010.54 1010.89 1011.52 1012.35 1013.58 1014.71 1014.87 1014.96 1015.29 1015.60 1015.91 1016.46 1017.20 1018.00 1018.61 1019.34 1019.86 1020.25 1020.69 1020.93 1021.46 1021.55 1022.26 1022.95 1023.37 1023.49 1023.91 1024.29
1000.88 1001.82 1002.47 1003.27 1003.98 1004.67 1005.54 1006.23 1006.90 1007.67 1008.52 1009.10 1010.01 1010.42 1010.72 1010.89 1011.42 1011.75 1011.98 1012.41 1013.36 1014.00 1014.07 1014.54 1014.90 1015.33 1015.92 1016.70 1017.53 1018.39 1019.04 1019.73 1020.21 1020.69 1021.08 1021.63 1021.92 1022.16 1022.73 1023.32 1023.61 1023.70 1023.95
999.91 1000.64 1001.51 1002.30 1003.18 1003.98 1004.56 1005.21 1005.94 1006.67 1007.25 1007.90 1008.91 1009.71 1010.60 1011.05 1011.75 1012.24 1012.26 1012.16 1012.48 1012.80 1013.33 1014.04 1014.67 1015.18 1015.85 1016.53 1017.31 1018.22 1019.18 1019.79 1020.15 1020.48 1020.95 1021.34 1021.78 1022.19 1022.95 1023.18 1023.28 1023.64 1024.22
999.03 999.96 1000.61 1001.53 1002.18 1002.88 1003.48 1004.15 1004.73 1005.38 1006.11 1006.69 1007.54 1008.53 1009.03 1009.73 1010.49 1010.88 1011.14 1011.19 1011.35 1011.79 1012.68 1013.40 1014.17 1014.91 1015.70 1016.39 1017.08 1017.73 1018.33 1018.86 1019.42 1020.15 1020.66 1021.15 1021.52 1022.13 1022.56 1022.92 1023.28 1023.56 1023.99
998.07 998.90 999.98 1000.46 1001.29 1001.96 1002.54 1003.11 1003.75 1004.26 1004.82 1005.68 1006.46 1007.53 1007.95 1008.39 1008.75 1009.06 1009.59 1009.98 1010.60 1011.19 1011.73 1012.70 1013.68 1014.25 1014.74 1015.36 1016.01 1016.64 1017.29 1017.93 1018.77 1019.59 1020.23 1021.13 1021.48 1022.01 1022.35 1022.73 1023.05 1023.50 1023.75
997.21 998.07 998.95 999.66 1000.24 1000.98 1001.81 1002.17 1002.68 1003.16 1003.61 1004.32 1005.13 1006.30 1007.52 1007.53 1007.71 1008.01 1008.41 1009.22 1010.03 1010.63 1011.28 1012.18 1013.25 1013.98 1014.52 1015.07 1015.49 1016.02 1016.98 1017.75 1018.58 1018.87 1019.86 1020.58 1021.24 1021.71 1022.13 1022.69 1022.94 1023.34 1023.47
996.81 997.46 998.14 998.75 999.42 1000.15 1000.75 1001.46 1001.97 1002.30 1002.66 1003.02 1003.65 1004.62 1005.49 1006.29 1006.50 1006.91 1007.59 1008.31 1009.27 1010.08 1011.00 1011.72 1012.62 1013.34 1014.08 1014.84 1015.49 1016.09 1016.78 1017.30 1017.66 1018.83 1019.72 1020.50 1021.00 1021.48 1022.11 1022.50 1022.80 1023.13 1023.61
996.52 996.92 997.58 998.16 998.74 999.29 999.83 1000.39 1000.92 1001.60 1002.10 1002.66 1003.21 1003.63 1004.36 1005.30 1005.96 1006.43 1007.29 1008.33 1009.22 1010.35 1011.34 1011.87 1012.53 1013.79 1014.30 1015.06 1015.82 1016.74 1017.68 1018.03 1018.64 1019.12 1019.68 1020.18 1020.88 1021.61 1022.12 1022.50 1022.85 1023.37 1023.66
996.29 996.61 996.94 997.48 998.04 998.58 999.18 999.88 1000.53 1001.16 1001.75 1002.42 1003.02 1003.57 1004.10 1004.89 1005.63 1006.32 1007.14 1008.14 1009.33 1010.32 1011.19 1012.08 1013.10 1014.01 1014.58 1015.42 1016.30 1017.10 1017.79 1018.51 1019.13 1019.56 1020.04 1020.48 1021.17 1021.69 1022.00 1022.49 1022.94 1023.35 1023.56
Wind_Speed
7 5 7 4 4 4 4 4 4 4 5 6 6 6 7 7 6 8 10 10 11 11 9 8 9 9 7 7 7 6 5 5 8 3 3 3 4 5 5 4 5 5 5
7 6 6 5 6 5 5 5 4 4 4 5 5 7 6 6 6 11 11 10 10 11 11 12 11 6 9 8 5 6 5 5 5 6 2 3 3 7 5 6 4 4 5
7 7 5 6 6 5 5 6 4 3 4 5 5 6 7 6 6 7 11 10 9 9 11 12 11 9 8 7 5 5 4 3 3 4 2 2 3 3 3 2 3 4 5
8 7 6 6 5 4 5 6 6 5 4 4 5 4 6 6 5 8 9 10 9 7 6 9 9 9 10 6 4 4 4 4 5 4 4 3 3 1 4 4 3 3 4
9 8 7 6 5 4 4 6 4 4 5 5 7 8 5 5 4 9 9 8 9 9 6 8 9 10 8 6 4 5 5 7 6 4 3 3 4 3 5 4 4 2 3
9 8 7 6 5 4 5 6 6 4 7 10 7 7 6 3 13 12 9 8 7 8 8 8 8 9 7 9 1 7 7 9 4 5 4 4 4 4 3 4 3 2 2
11 9 8 6 5 5 5 6 6 7 7 8 8 8 7 5 11 11 10 7 6 7 8 9 9 6 5 3 4 6 9 8 8 7 7 5 5 6 6 4 4 3 4
11 10 9 7 6 6 5 6 6 6 7 6 7 7 7 5 12 12 10 7 7 6 7 9 9 6 6 5 5 5 6 7 5 5 7 4 4 5 6 5 6 3 0
8 11 11 8 7 7 6 7 5 7 6 4 6 7 7 4 9 10 9 6 7 7 6 6 8 6 6 8 6 6 5 5 5 10 10 9 10 8 7 4 2 3 2
9 12 12 10 9 8 7 7 4 4 5 6 6 7 8 6 5 9 8 5 6 5 5 5 10 8 8 5 6 7 6 2 3 4 2 3 7 5 5 5 4 3 2
9 11 12 10 12 9 8 5 5 4 4 6 7 6 7 7 6 7 6 4 5 5 5 4 3 10 9 9 8 6 5 5 5 4 2 3 5 5 3 5 5 4 3
9 10 13 11 11 9 10 6 7 6 5 4 6 5 5 6 9 7 8 7 4 6 5 4 5 9 10 11 8 10 9 7 4 5 5 6 5 4 6 6 7 6 4
9 9 13 13 10 10 11 8 5 6 4 5 5 5 4 3 5 9 9 7 4 5 5 9 13 11 12 9 9 9 7 4 3 6 5 3 4 4 4 4 3 3 4
9 9 13 13 10 11 9 9 7 6 5 5 5 5 5 5 4 5 4 4 5 5 9 7 6 7 7 6 5 2 1 2 4 6 4 4 2 2 3 1 3 3 4
9 11 13 11 12 10 10 10 7 6 7 6 5 6 7 7 7 10 10 6 4 6 8 5 3 3 3 3 1 3 3 5 7 4 6 4 3 3 3 3 4 4 4
10 11 11 10 9 10 8 5 8 2 13 12 11 8 6 12 15 18 16 14 13 16 4 4 4 5 7 7 5 4 5 7 5 6 5 5 5 4 3 4 3 3 3
10 12 11 12 9 11 9 9 8 3 7 1 10 12 12 14 20 20 19 16 15 10 4 4 5 7 4 6 7 8 6 4 6 5 5 4 5 4 3 5 3 3 4
9 14 12 11 11 10 10 9 9 8 6 4 2 2 4 14 21 22 17 14 4 2 4 5 5 5 8 9 8 8 7 5 5 5 5 5 5 4 4 4 4 4 3
12 10 11 10 11 11 10 10 7 9 8 7 3 3 6 10 8 7 21 11 10 8 5 3 5 6 8 9 8 8 8 7 6 5 4 4 4 4 5 5 4 5 5
14 16 13 11 8 11 9 11 10 7 10 9 8 6 5 4 4 6 6 5 6 7 6 7 6 7 8 9 9 9 7 7 5 5 5 5 5 5 5 4 3 3 2
11 10 13 8 11 10 11 10 11 11 9 10 9 9 12 8 9 11 11 6 7 7 8 9 9 9 9 9 10 10 10 8 7 7 5 4 5 5 4 4 4 4 3
10 11 11 12 8 11 9 11 9 11 12 9 9 10 17 11 11 12 12 11 7 7 9 10 9 10 11 12 12 11 10 11 9 8 6 5 5 5 5 4 3 2 2
10 12 13 12 11 8 6 9 9 9 11 11 12 9 12 12 11 11 11 9 8 10 9 11 10 10 8 8 8 10 10 9 7 6 7 7 5 5 4 3 4 2 1
6 8 12 12 11 9 11 9 6 8 10 11 11 12 14 13 12 12 11 11 10 11 11 11 10 12 11 10 8 8 8 7 7 7 8 7 5 5 4 4 3 3 3
4 6 8 11 11 11 10 7 11 5 6 5 6 8 10 10 8 10 11 12 12 12 10 11 11 13 14 15 13 12 10 10 8 7 5 5 6 8 6 4 4 4 4
4 4 5 7 8 8 7 6 6 8 8 6 6 8 8 10 11 13 14 14 13 13 14 12 14 18 19 15 15 13 12 10 8 8 5 6 6 5 5 6 7 4 5
Wind_Direction
125 133 139 164 152 117 104 112 88 80 70 70 82 89 87 92 105 107 118 112 111 108 103 109 110 116 115 112 112 107 102 115 124 70 84 126 142 155 176 172 171 184 187
152 132 132 124 109 108 109 120 117 114 93 94 84 96 95 95 100 116 129 125 118 112 122 127 126 116 104 112 110 98 93 74 110 121 114 128 161 176 170 167 194 190 182
139 135 120 120 108 126 124 111 122 115 112 105 103 102 116 103 92 82 111 120 117 117 134 129 130 121 113 103 82 94 87 68 86 122 114 66 68 99 101 80 187 215 212
140 136 129 137 137 144 139 136 151 141 138 143 137 124 117 111 109 109 105 110 113 104 111 126 135 125 120 118 128 153 169 170 158 144 126 98 97 153 149 174 209 215 226
140 138 145 154 161 161 128 141 147 139 113 121 99 80 83 94 115 106 113 121 118 123 117 123 128 129 131 161 172 203 201 158 144 118 127 134 177 159 184 202 190 226 260
140 148 147 151 171 168 146 131 151 123 83 88 90 111 109 93 110 107 116 127 135 138 133 134 131 131 175 218 298 249 179 142 141 148 168 155 197 185 163 184 184 174 292
144 152 148 164 165 144 128 109 114 103 102 95 95 94 92 106 131 138 138 138 132 131 134 144 153 174 183 222 143 135 100 139 165 157 160 189 168 194 159 184 202 195 203
145 158 158 161 159 150 140 125 111 112 117 114 106 104 105 93 119 151 144 142 133 131 139 157 170 163 198 181 188 110 89 65 63 97 117 130 130 123 150 177 200 211 37
154 162 163 160 157 162 158 145 132 114 122 124 126 116 111 90 77 102 115 122 131 141 154 162 155 158 180 174 139 120 95 96 61 87 111 129 128 131 146 117 93 83 11
167 165 167 162 161 162 158 153 141 131 134 139 136 143 146 134 86 82 106 123 110 113 96 94 135 146 142 104 147 141 125 155 114 95 114 166 187 154 89 75 120 96 72
169 158 164 158 160 159 150 141 143 146 155 143 148 153 151 160 135 107 82 122 137 136 137 137 133 137 122 97 122 138 163 155 149 111 64 0 29 41 58 63 73 104 110
167 156 161 159 164 155 151 150 154 157 172 167 148 150 160 165 148 148 111 106 158 143 166 159 147 151 122 106 95 133 126 93 85 77 55 65 77 63 69 67 64 71 85
167 155 156 160 154 152 155 158 154 163 169 174 158 147 172 177 152 152 141 128 167 161 171 167 153 145 119 93 116 99 83 90 92 79 100 92 65 65 77 69 64 107 121
169 152 156 157 151 160 159 164 168 171 175 179 168 170 164 167 169 164 156 130 110 91 106 116 126 124 97 118 80 44 111 136 111 124 109 109 101 88 93 118 81 33 63
158 154 161 159 158 160 165 168 172 189 176 179 185 176 162 178 195 174 166 173 165 136 102 87 89 92 117 134 146 183 161 107 118 132 113 119 97 65 58 39 52 52 79
160 158 165 160 160 165 162 152 48 179 193 194 200 180 193 183 168 174 172 167 169 151 111 137 169 180 179 186 167 142 130 124 116 116 112 116 105 100 72 30 62 75 82
172 163 163 163 160 167 169 170 179 41 69 80 207 199 191 182 175 178 178 174 174 135 159 174 183 194 166 150 138 135 132 126 132 121 118 116 102 96 106 116 101 75 58
164 165 168 169 172 169 176 177 178 177 184 202 170 249 186 185 180 180 167 124 128 248 178 183 193 174 154 144 142 137 131 126 115 125 126 125 117 120 113 85 90 114 105
173 172 171 170 176 175 175 183 175 180 186 187 141 80 68 71 89 141 161 175 181 191 197 157 147 142 140 139 135 132 134 141 137 131 119 120 121 115 98 115 127 122 115
185 179 178 176 160 182 180 182 190 180 184 188 186 184 136 114 141 163 195 173 175 183 149 143 135 134 137 136 133 134 131 134 131 126 136 131 128 113 127 128 110 94 109
184 178 176 168 184 176 189 190 189 195 189 192 186 169 173 160 172 183 191 183 177 173 162 152 148 139 140 141 141 144 145 149 141 136 128 135 130 128 134 116 124 132 164
173 178 181 188 171 193 186 191 187 194 199 187 188 178 178 186 183 185 188 189 170 147 149 146 151 153 154 154 154 152 149 145 139 140 134 140 125 126 144 133 120 124 129
174 170 182 189 192 185 181 202 194 194 194 191 192 166 185 196 188 191 189 174 151 152 149 142 143 144 146 147 149 143 139 134 129 135 137 141 142 145 145 142 141 145 159
163 157 178 188 191 183 203 205 199 197 201 192 183 176 184 195 195 186 174 163 148 148 145 144 143 142 134 133 125 123 131 121 119 131 135 141 150 146 128 126 117 91 69
159 178 162 182 190 195 193 186 206 183 174 163 177 180 174 172 145 144 138 138 139 137 127 127 126 123 116 111 101 97 92 93 94 103 100 127 124 116 121 109 97 87 88
192 173 182 162 182 185 181 170 161 168 161 167 158 153 145 143 143 143 143 140 135 132 128 126 121 118 115 113 117 112 103 106 100 88 93 106 113 114 106 102 101 97 79